Location: Los Gatos B&B
(42.6926°N, 77.0646°W)
Time: 20:33:24
(UTC-04:00)

SL-16 R/B - Visible Passes

Search period start: 20 October 2014 00:00
Search period end: 30 October 2014 00:00
Orbit: 840 x 850 km, 71.0° (Epoch: 19 October)

Date Brightness Start Highest point End Pass type
(mag) Time Alt. Az. Time Alt. Az. Time Alt. Az.
20 Oct 3.8 05:54:35 10° N 05:59:45 34° NE 06:04:53 10° ESE visible
20 Oct 4.5 20:46:51 10° S 20:47:07 11° S 20:47:07 11° S visible
21 Oct 3.8 05:40:39 10° N 05:45:47 34° NE 05:50:52 10° ESE visible
21 Oct 3.5 20:32:55 10° S 20:35:20 26° S 20:35:20 26° S visible
22 Oct 3.8 05:26:43 10° N 05:31:48 33° NE 05:36:51 10° ESE visible
22 Oct 2.4 20:18:59 10° S 20:23:32 49° SE 20:23:32 49° SE visible
22 Oct 4.7 22:04:22 10° WSW 22:05:33 15° W 22:05:33 15° W visible
23 Oct 3.9 05:12:46 10° N 05:17:50 32° NE 05:22:50 10° ESE visible
23 Oct 2.7 06:56:45 10° NW 07:02:02 41° WSW 07:07:16 10° S visible
23 Oct 2.2 20:05:03 10° S 20:10:33 54° ESE 20:11:40 46° ENE visible
23 Oct 4.2 21:50:20 10° WSW 21:53:40 23° WNW 21:53:40 23° WNW visible
24 Oct 3.9 04:58:50 10° N 05:03:51 31° NE 05:08:49 10° ESE visible
24 Oct 2.6 06:42:46 10° NW 06:48:05 42° WSW 06:53:21 10° S visible
24 Oct 2.3 19:51:07 10° S 19:56:35 52° ESE 19:59:36 26° NE visible
24 Oct 4.1 21:36:18 10° WSW 21:41:01 26° NW 21:41:35 26° NW visible
25 Oct 3.9 04:44:54 10° N 04:49:52 30° NE 04:54:48 10° ESE visible
25 Oct 2.5 06:28:47 10° NW 06:34:08 43° WSW 06:39:26 10° S visible
25 Oct 2.3 19:37:11 10° S 19:42:38 50° ESE 19:47:17 14° NE visible
25 Oct 4.0 21:22:16 10° WSW 21:27:02 27° NW 21:29:15 21° NNW visible
26 Oct 3.9 04:31:55 14° N 04:35:53 29° NE 04:40:46 10° ESE visible
26 Oct 2.5 06:14:48 10° NW 06:20:11 45° WSW 06:25:30 10° S visible
26 Oct 2.4 19:23:16 10° S 19:28:41 48° ESE 19:34:08 10° NE visible
26 Oct 4.0 21:08:14 10° WSW 21:13:03 28° NW 21:16:39 15° N visible
27 Oct 3.9 04:19:55 23° NNE 04:21:54 28° NE 04:26:44 10° ESE visible
27 Oct 2.4 06:01:56 16° NW 06:06:13 46° WSW 06:11:35 10° S visible
27 Oct 2.5 19:09:20 10° S 19:14:44 47° ESE 19:20:09 10° NE visible
27 Oct 4.0 20:54:13 10° WSW 20:59:03 28° NW 21:03:47 11° N visible
28 Oct 4.0 04:08:04 28° NE 04:08:04 28° NE 04:12:43 10° ESE visible
28 Oct 2.4 05:50:05 32° NW 05:52:16 48° WSW 05:57:39 10° S visible
28 Oct 2.5 18:55:24 10° S 19:00:46 45° ESE 19:06:10 10° NE visible
28 Oct 4.0 20:40:11 10° WSW 20:45:04 29° NW 20:50:00 10° N visible
29 Oct 4.4 03:56:17 21° E 03:56:17 21° E 03:58:40 10° ESE visible
29 Oct 2.3 05:38:18 49° WSW 05:38:19 49° WSW 05:43:43 10° S visible
29 Oct 2.6 18:41:29 10° S 18:46:49 44° ESE 18:52:11 10° NE visible
29 Oct 3.9 20:26:09 10° WSW 20:31:05 30° NW 20:36:04 10° N visible
